Location: Foligno
(42.9600°N, 12.7050°E)
Time: 00:03:55
(UTC+01:00)

ISS - Pass Details

Date: 14 November 2018
Orbit: 402 x 409 km, 51.6° (Epoch: 14 November)

Event Time Altitude Azimuth Distance (km) Brightness Sun altitude
Exits shadow 05:45:06 24° 254° (WSW) 885 -2.6 -13.8°
Maximum altitude 05:46:02 28° 223° (SW) 787 -2.7 -13.6°
Drops below altitude 10° 05:48:53 10° 162° (SSE) 1,454 -0.6 -13.1°
Sets 05:51:07 0° 150° (SSE) 2,311 0.7 -12.7°
